K.P. Christians Land Sermersua

KL  EN  DA
ASIAQ
Weather Now GREENLAND SURVEY
Updated [WGT/WGST] Temperature [°C] Wind [m/s] Air pressure [hPa] Relative humidity [%] Precipitation [mm]
Present Wind chill Speed Max
24.09 02:00-10,50,011,0 ⇓n/a96760n/a
24.09 01:00-10,10,011,2 ⇓n/a96759n/a
24.09 00:00-9,90,012,0 ⇓n/a96759n/a
23.09 23:00-9,60,012,1 ⇓n/a96761n/a
23.09 22:00-9,40,012,2 ⇓n/a96759n/a
23.09 21:00-9,20,011,4 ⇓n/a96760n/a
23.09 20:00-9,30,010,3 ⇓n/a96758n/a
23.09 19:00-8,90,010,3 ⇓n/a96757n/a
23.09 18:00-9,10,010,6 ⇓n/a96757n/a
23.09 17:00-8,80,08,9 ⇓n/a96756n/a
23.09 16:00-8,80,010,1 ⇓n/a96757n/a
23.09 15:00-8,60,09,4 ⇓n/a96757n/a
23.09 14:00-8,50,09,1 ⇓n/a96856n/a
23.09 13:00-8,40,09,0 ⇓n/a96856n/a
23.09 12:00-8,60,07,2 ⇓n/a96957n/a
23.09 11:00-8,70,06,9 ⇓n/a96956n/a
23.09 10:00-8,90,08,0 ⇓n/a96959n/a
23.09 09:00-8,90,08,3 ⇓n/a97060n/a
23.09 08:00-8,90,07,4 ⇓n/a97061n/a
23.09 07:00-8,90,07,4 ⇓n/a97062n/a
23.09 06:00-8,70,07,7 ⇓n/a97063n/a
23.09 05:00-8,60,07,7 ⇓n/a97164n/a
23.09 04:00-8,50,07,5 ⇓n/a97164n/a
23.09 03:00-8,40,05,9 ⇓n/a97266n/a
23.09 02:00-8,10,04,8 ⇓n/a97269n/a
Position: (79.9108,-24.0828)

[Back]